Wind_Speed
8 13 16 21 23 19 20 18 19 14 14 15 17 17 19 20 20 20 22 19 15 13 14 14 18 14 13 15 14 14 15 17 14 19 18 16 15 13 13 13 15 17 17
14 12 17 17 19 26 20 17 14 13 10 13 14 14 16 17 17 18 19 14 14 8 9 8 13 13 15 14 16 21 20 16 17 19 16 16 17 14 13 14 14 16 17
17 15 14 19 19 19 18 15 16 14 10 11 14 16 16 16 16 17 17 16 13 14 11 12 13 11 12 12 13 12 15 20 20 17 14 10 13 13 14 12 14 16 16
13 13 14 14 15 17 16 16 14 11 11 12 12 14 16 16 16 16 16 15 13 13 13 15 19 14 16 16 15 17 17 14 14 15 16 16 12 13 16 14 14 16 16
14 11 10 10 13 17 19 18 14 12 12 12 11 13 14 15 14 14 15 15 15 15 15 15 15 13 18 18 15 14 14 12 14 16 17 12 10 10 12 14 18 15 17
9 8 8 5 6 7 7 8 8 9 10 9 10 11 13 13 16 18 18 14 15 16 17 15 12 12 14 14 13 15 16 15 16 16 18 14 17 19 15 17 17 12 14
4 2 0 1 3 5 6 8 9 9 9 9 9 10 13 16 18 19 18 15 15 15 15 14 12 8 11 8 10 13 15 17 20 15 16 17 13 13 11 16 20 18 18
8 7 6 5 4 4 5 6 6 6 7 7 8 8 10 11 14 14 13 15 14 16 14 15 15 12 8 9 10 9 11 12 12 11 18 18 16 11 13 15 23 25 22
10 8 6 5 4 4 5 6 7 8 8 8 8 9 10 10 13 14 15 15 14 16 16 17 17 17 18 15 14 13 13 10 9 8 9 14 11 11 19 19 19 20 17
7 6 3 2 4 5 7 8 8 9 10 10 11 12 15 15 15 15 15 13 16 16 14 18 21 21 19 16 16 14 16 13 8 6 12 13 15 11 10 19 22 20 15
8 3 2 4 5 7 8 10 12 11 13 14 15 15 16 15 15 16 14 15 16 17 17 18 18 20 19 18 17 19 19 15 12 11 13 15 15 12 9 14 21 18 17
7 5 5 7 8 9 11 12 11 12 13 15 15 16 16 15 16 16 16 15 16 17 20 21 18 18 18 18 20 23 22 21 21 15 14 14 17 7 7 14 16 17 18
7 7 9 11 12 12 13 14 15 17 17 19 20 21 20 19 18 18 17 16 17 19 18 19 22 22 21 22 24 24 24 23 21 16 17 16 12 11 12 15 14 15 16
8 10 11 12 15 16 15 15 16 18 20 19 21 23 23 21 21 20 19 19 19 18 18 19 20 22 22 22 22 21 23 19 21 20 20 17 13 13 15 13 12 11 11
7 9 11 12 14 16 17 18 19 19 19 20 21 22 24 25 25 26 28 28 27 27 27 25 24 23 22 17 16 16 15 15 17 20 20 20 18 16 16 15 16 13 13
8 11 13 15 16 16 16 17 17 22 24 24 25 27 28 30 33 33 34 34 33 31 26 24 24 24 24 25 23 22 21 19 19 19 21 22 22 21 20 18 17 17 15
10 13 14 14 15 17 18 19 21 23 23 27 30 30 32 35 36 36 37 36 36 34 22 25 26 26 26 25 26 26 25 23 22 21 21 21 23 25 22 20 19 19 17
12 15 13 14 16 17 18 20 22 24 27 30 31 30 33 35 37 36 34 34 28 24 23 27 28 26 26 26 26 27 27 24 23 23 24 24 22 24 23 20 19 18 17
11 12 13 14 15 18 21 22 24 27 28 29 30 32 31 28 27 30 29 27 27 27 27 27 25 26 26 26 26 27 27 25 25 23 22 24 25 23 25 24 22 21 18
10 11 12 14 18 20 22 24 25 25 26 27 26 26 27 26 27 27 25 23 21 21 25 28 29 28 26 24 24 24 25 25 23 24 24 22 23 23 23 24 24 22 19
10 12 14 17 19 21 22 23 24 24 23 24 27 28 29 29 28 28 28 26 26 25 25 26 28 27 26 24 23 24 24 24 23 24 25 22 21 22 21 21 22 21 21
10 14 16 18 19 20 21 23 23 22 22 24 27 29 30 29 27 27 27 28 27 27 27 27 29 28 24 23 21 20 19 20 22 21 22 19 18 19 19 20 20 20 20
12 15 17 18 18 19 19 19 20 20 21 24 26 27 27 26 27 28 29 30 29 29 28 28 32 28 26 22 19 18 17 19 20 17 15 15 16 16 16 17 19 19 19
12 15 17 17 17 18 18 19 21 21 22 23 25 26 27 27 29 29 28 27 27 27 28 23 29 31 25 19 17 16 16 15 14 12 13 14 14 14 15 16 18 19 20
14 16 17 17 17 18 19 19 20 21 22 23 24 25 26 27 28 28 27 24 22 20 21 19 21 19 8 11 9 14 15 19 18 16 16 15 17 18 18 16 15 18 20
14 15 15 17 18 18 18 18 19 20 21 22 23 24 26 27 27 26 20 17 17 16 15 12 9 7 3 3 7 11 16 19 23 24 26 22 21 20 19 18 14 14 13
Wind_Direction
210 216 222 236 237 239 250 262 269 278 288 282 276 280 280 275 271 270 277 283 292 289 270 269 264 268 264 268 260 257 242 236 249 274 269 277 263 252 247 241 231 230 231
227 235 239 231 241 244 256 267 265 286 294 280 267 280 278 277 268 266 273 271 273 284 305 265 283 285 266 262 268 260 255 239 239 252 268 265 277 268 255 235 231 231 233
240 250 243 248 241 245 244 260 279 284 282 280 276 275 274 276 273 272 272 267 260 262 267 272 278 282 278 281 272 258 262 259 246 247 256 253 278 270 259 240 236 233 232
234 243 238 234 238 243 257 282 290 277 272 267 270 271 268 270 271 276 267 265 261 254 252 273 293 282 278 277 271 264 264 250 250 244 248 249 259 269 243 243 238 235 234
245 251 265 281 298 296 290 289 281 278 272 274 276 266 264 270 270 270 268 271 274 266 262 271 273 270 280 278 264 266 267 252 245 241 242 243 239 247 240 259 247 238 233
236 256 276 308 334 333 321 309 295 287 285 279 272 267 269 275 275 284 276 271 276 277 278 280 277 285 307 304 267 261 254 253 250 244 250 237 259 274 298 270 257 232 239
220 232 71 19 14 355 338 330 328 317 304 300 292 287 285 285 282 286 286 277 272 272 271 269 265 276 299 299 280 271 257 254 249 256 252 236 254 275 295 301 259 242 243
138 123 112 106 91 56 28 11 355 337 319 312 310 305 298 297 304 301 296 284 273 269 264 260 256 262 291 317 292 271 281 264 254 255 232 244 246 256 313 294 273 258 251
123 109 94 79 51 26 6 355 339 330 325 324 316 309 303 299 303 303 296 285 278 270 269 263 251 260 287 297 293 280 286 269 260 250 253 262 279 267 301 284 260 246 242
127 126 113 45 347 329 324 315 308 304 300 299 296 297 298 299 298 297 293 283 278 276 271 267 263 264 278 281 280 275 270 258 226 240 259 262 258 246 259 264 254 244 236
154 166 267 296 305 304 304 303 302 302 299 297 298 299 297 292 293 297 290 281 275 280 276 270 263 263 270 272 266 264 258 265 258 258 260 259 252 261 245 234 243 234 244
190 227 256 276 286 288 299 304 298 293 293 294 293 297 296 292 296 297 288 282 282 276 275 275 274 276 275 270 264 260 265 260 260 258 257 250 248 223 256 243 236 240 244
231 250 273 285 292 294 293 294 298 297 297 298 296 295 295 295 294 293 294 291 285 280 277 276 282 284 277 271 262 260 261 252 244 246 251 255 252 241 228 232 241 246 250
253 275 284 294 298 300 298 296 294 293 295 295 296 297 297 295 291 291 291 293 290 287 287 285 283 282 280 270 263 259 254 242 236 238 246 248 238 226 226 225 226 228 227
266 284 295 300 299 297 294 292 292 291 287 291 292 293 293 291 289 286 283 285 285 285 288 283 279 274 267 264 255 249 246 240 234 240 243 240 230 223 221 223 225 225 228
287 294 297 297 296 297 298 300 295 295 297 295 292 289 287 283 288 293 293 290 288 287 281 274 269 267 264 262 260 257 249 244 239 240 241 239 235 225 221 219 220 223 228
289 290 295 298 298 299 300 300 301 301 297 295 296 294 291 290 293 293 293 293 291 286 268 263 260 261 258 260 259 257 255 250 244 239 239 240 238 231 218 214 215 223 233
284 289 292 290 292 294 295 297 298 298 299 299 297 295 292 291 292 292 292 291 281 267 258 258 257 256 253 257 258 253 251 252 248 242 240 239 236 232 226 224 224 228 231
290 296 297 297 295 293 294 293 293 294 294 294 298 297 297 299 299 294 287 275 273 271 265 258 253 255 255 254 253 251 249 250 248 246 243 243 239 233 231 230 238 241 236
294 300 302 299 296 294 294 293 293 294 296 297 297 294 298 305 304 299 293 286 272 266 270 267 262 258 253 251 250 249 248 248 249 243 242 243 238 236 233 234 239 243 230
303 304 303 300 296 294 294 294 296 295 292 291 290 294 294 292 289 287 285 280 276 273 272 273 264 260 254 248 249 247 247 249 247 245 239 239 241 240 234 240 244 241 241
313 308 304 301 300 299 299 298 294 291 288 290 295 297 296 290 284 281 281 282 280 275 272 274 274 257 247 244 242 238 246 246 242 241 240 233 240 241 241 240 239 240 236
314 310 308 305 304 302 300 299 296 294 296 297 297 299 299 294 290 282 279 278 277 273 275 274 273 268 247 246 245 250 244 244 245 253 248 246 242 243 246 244 242 234 229
322 317 316 313 311 309 307 304 303 304 304 306 307 306 305 304 303 297 281 279 282 276 279 276 276 284 246 239 246 250 245 249 253 250 247 246 245 241 239 237 237 238 235
337 330 322 319 319 317 316 316 316 317 317 316 315 315 315 313 310 306 301 286 290 289 287 288 284 299 234 238 249 248 247 249 255 249 247 246 242 242 244 242 242 240 237
336 335 331 332 333 330 329 327 329 330 328 329 329 328 327 325 323 323 319 303 300 296 296 289 282 305 285 263 266 267 265 264 263 261 257 250 245 244 248 243 230 227 220
Height
808 815 817 819 820 826 827 825 825 825 824 824 824 825 825 824 825 825 825 826 825 822 821 821 823 824 823 822 824 825 825 825 824 820 820 820 820 819 819 819 819 820 819
809 812 813 815 819 820 819 820 820 818 817 819 820 819 819 820 820 820 821 823 821 820 820 821 819 820 819 816 817 817 818 818 818 815 814 814 814 815 816 816 816 814 814
807 809 812 812 813 813 815 815 815 812 812 814 814 814 815 815 816 816 817 818 817 817 817 818 817 815 813 811 811 810 811 811 809 809 808 807 807 809 809 810 812 812 810
807 808 810 810 810 810 809 809 809 808 809 810 809 809 811 811 811 811 812 813 812 812 813 812 809 807 807 806 806 805 804 803 804 803 802 800 800 802 804 806 808 808 806
802 803 804 804 803 803 802 802 804 804 805 806 804 805 806 805 806 808 809 808 807 807 806 806 804 801 801 799 799 798 798 798 797 797 796 797 797 800 799 801 803 803 801
799 800 801 800 800 800 800 801 801 801 801 801 802 803 802 801 802 803 803 802 802 800 799 798 797 796 793 792 792 792 793 794 793 790 790 791 793 796 796 800 801 800 797
800 801 800 799 800 800 800 800 799 798 798 798 800 800 798 798 798 798 800 798 797 796 795 794 793 793 790 789 788 787 787 787 788 789 788 787 786 791 793 795 796 796 792
798 799 800 801 800 801 800 800 799 798 798 798 797 797 795 796 795 795 794 793 792 791 789 789 788 787 787 786 785 784 784 783 782 780 780 781 781 784 787 788 791 791 791
799 800 800 800 801 800 799 798 797 796 796 795 795 794 794 794 792 791 790 788 786 785 784 783 783 782 781 782 780 780 778 779 778 778 777 778 779 777 782 782 784 786 785
800 801 801 802 802 801 800 799 797 797 796 795 794 792 790 789 789 787 786 785 782 781 778 777 777 776 776 777 776 776 774 774 775 775 774 774 774 773 774 778 778 779 778
798 800 802 801 801 801 799 798 798 795 793 791 789 788 786 784 784 782 781 779 778 776 773 772 771 770 770 770 770 769 769 770 770 769 769 769 768 766 767 770 773 775 772
797 798 798 798 797 797 795 793 792 791 790 788 785 782 781 780 777 775 774 773 772 770 768 766 765 764 763 762 762 761 762 763 762 763 763 762 763 758 762 765 766 767 767
795 794 796 796 793 792 791 789 788 787 784 782 779 777 774 772 771 769 768 767 765 763 762 760 758 756 754 753 753 753 754 754 754 756 755 754 753 753 756 758 759 758 758
791 792 791 791 790 788 788 786 783 781 779 776 774 771 768 766 764 763 762 760 759 757 755 753 752 750 748 746 745 745 744 745 746 747 747 748 749 751 752 752 753 753 752
787 789 789 787 788 785 783 781 779 776 775 772 769 767 764 760 758 757 756 754 752 751 749 748 745 743 741 740 738 737 737 738 738 739 740 741 742 743 744 746 746 747 747
787 787 786 785 784 783 779 774 773 770 768 768 764 761 758 755 750 747 745 744 742 742 741 740 736 734 732 731 729 729 729 729 730 730 731 733 734 735 736 738 740 740 739
785 785 783 781 780 777 775 772 766 762 760 758 756 751 748 744 741 739 736 733 732 731 730 728 725 724 723 722 721 720 719 719 721 722 723 724 725 726 728 729 731 732 732
784 782 779 777 776 773 772 768 764 759 753 747 746 743 738 734 732 729 726 724 720 716 716 716 714 713 711 711 711 710 709 710 711 712 713 714 715 717 718 719 720 722 723
779 777 776 774 772 771 767 762 758 754 749 744 739 734 731 728 723 721 718 714 710 706 704 702 703 702 701 700 700 700 700 700 700 702 703 704 705 707 708 710 710 712 714
775 773 772 770 767 765 762 758 753 748 743 739 734 730 726 722 717 713 710 706 703 699 697 694 693 691 691 690 690 691 691 691 692 692 693 694 695 696 698 700 702 702 705
773 770 768 767 764 761 756 753 748 744 739 735 729 725 721 719 712 707 701 699 695 691 689 688 685 683 682 681 682 682 682 683 683 682 682 685 687 686 689 691 693 694 697
770 768 766 763 759 755 752 749 744 739 734 729 722 716 713 709 703 698 693 689 686 684 682 679 675 674 672 672 672 673 674 674 674 674 674 676 678 680 682 684 687 689 690
767 765 762 758 755 751 746 742 738 733 728 723 718 711 705 699 694 688 683 679 677 674 672 670 666 663 665 665 666 667 668 668 667 667 668 670 671 673 675 678 679 682 683
765 762 758 754 750 746 742 737 732 728 723 718 712 705 699 692 686 679 673 670 667 664 663 661 659 656 656 658 660 661 661 661 663 664 665 666 666 667 670 672 673 674 675
763 759 754 750 745 741 736 732 728 723 718 713 707 701 694 687 679 672 666 662 660 658 655 654 652 649 648 651 653 654 655 654 655 658 660 661 662 663 665 665 666 667 667
760 756 751 747 742 738 734 730 726 721 716 711 705 699 691 683 676 667 660 657 655 653 652 650 649 647 647 648 648 648 648 648 649 650 651 653 655 656 658 659 660 662 663